sat.trackr.live / text

‹ back to catalog

STARLINK-2569

NORAD 48277 · 2021-036B

PAYLOAD ACTIVE UNKNOWN

§ Identity

Operator
Country
US
Launch date
2021-04-29
Launch site
AFETR
Launch vehicle
Mass (kg)
RCS (m²)

Purposes: comms

External: N2YO · Heavens-Above · Gunter

§ Orbital elements

Epoch: 2026-09-19T06:47:50.051616Z

Period
93.55 min
Inclination
53.1202°
Eccentricity
0.0004294
Mean motion
15.39254720 rev/d
Perigee alt
445.4 km
Apogee alt
451.2 km
Semi-major
6,826.4 km
B*
1.0795e-3
RAAN
189.0535°
Arg perigee
91.5310°
Mean anomaly
268.6186°
Rev number
29,897

§ Raw data

STARLINK-25691 48277U 21036B   26262.28321819  .00042516  00000+0  10795-2 0  99932 48277  53.1202 189.0535 0004294  91.5310 268.6186 15.39254720298972

JSON: /api/v1/satellites/48277 · /tle

For live sub-satellite position, see the globe view (requires WebGL).

§ Visibility from observer

Set your observer location to see the next 7 days of passes ≥ 10°. The values pass through the URL so the page stays shareable.

No JS? Fill the form by hand. The geolocation button needs JavaScript.